Weather History for Moorhead, MN

Change the Weather History Date:

Monday, November 18, 2013

  Actual Average (KFAR) Record (KFAR)
Temperature  
Mean Temperature 27 °F 27 °F  
Max Temperature 30 °F 36 °F 60 °F (1908)
Min Temperature 24 °F 19 °F -13 °F (1881)
Degree Days  
Heating Degree Days 38 38  
Month to date heating degree days 586  
Since 1 July heating degree days 1462  
Cooling Degree Days 0 0  
Month to date cooling degree days 0  
Year to date cooling degree days 551  
Moisture  
Dew Point 22 °F    
Average Humidity 82    
Maximum Humidity 100    
Minimum Humidity 69    
Precipitation  
Precipitation 0.00 in 0.03 in 0.70 in (1998)
Month to date precipitation 0.65  
Year to date precipitation 21.43  
Snow  
Snow 0.00 in 0.40 in 5.60 in (1998)
Month to date snowfall 3.8  
Since 1 July snowfall 4.5  
Since 1 September snowfall 4.5  
Snow Depth -    
Sea Level Pressure  
Sea Level Pressure 30.12 in    
Wind  
Wind Speed 12 mph (North)    
Max Wind Speed 21 mph    
Max Gust Speed 25 mph    
Visibility 10 miles    
Events      
T = Trace of Precipitation, MM = Missing Value Source: NWS Daily Summary

Daily Weather History Graph

Daily Weather History Graph

Search for Another Location

Airport:

Trip Planner

Search our weather history database for the weather conditions in past years. The results will help you decide how hot, cold, wet, or windy it might be!

Date:

Astronomy

Nov. 18, 2013 Rise Set
Actual Time 7:34 AM CST 4:49 PM CST
Civil Twilight 7:00 AM CST 5:22 PM CST
Nautical Twilight 6:23 AM CST 5:59 PM CST
Astronomical Twilight 5:47 AM CST 6:35 PM CST
Moon 5:51 PM CST (11/18) 8:24 AM CST (11/18)
Length of Visible Light 10h 21m
Length of Day
9h 14m
Full, 99% of the Moon is Illuminated
Nov 18
Full
Nov 25
Last Quarter
Dec 2
New
Dec 9
First Quarter
Dec 17
Full

Hourly Weather History & Observations

Time (CST) Temp. Windchill Dew Point Humidity Pressure Visibility Wind Dir Wind Speed Gust Speed Precip Events Conditions
12:15 AM 26.6 °F 14.3 °F 23.0 °F 86% 29.94 in 10.0 mi NNW 16.1 mph 24.2 mph N/A   Overcast
12:34 AM 26.6 °F 13.1 °F 23.0 °F 86% 29.95 in 10.0 mi NW 19.6 mph 25.3 mph N/A   Overcast
12:55 AM 26.6 °F 13.1 °F 23.0 °F 86% 29.95 in 10.0 mi NW 19.6 mph 24.2 mph N/A   Overcast
1:15 AM 26.6 °F 13.8 °F 23.0 °F 86% 29.95 in 10.0 mi NW 17.3 mph - N/A   Overcast
1:34 AM 26.6 °F 13.1 °F 21.2 °F 80% 29.96 in 10.0 mi NNW 19.6 mph 24.2 mph N/A   Overcast
1:55 AM 26.6 °F 13.1 °F 21.2 °F 80% 29.97 in 10.0 mi NW 19.6 mph 23.0 mph N/A   Overcast
2:14 AM 26.6 °F 12.7 °F 21.2 °F 80% 29.98 in 10.0 mi NNW 20.7 mph 24.2 mph N/A   Overcast
2:35 AM 26.6 °F 13.8 °F 21.2 °F 80% 30.00 in 10.0 mi NNW 17.3 mph - N/A   Overcast
2:55 AM 26.6 °F 16.2 °F 21.2 °F 80% 30.00 in 10.0 mi NNW 11.5 mph - N/A   Overcast
3:15 AM 26.6 °F 15.7 °F 21.2 °F 80% 30.01 in 10.0 mi NW 12.7 mph 16.1 mph N/A   Overcast
3:34 AM 26.6 °F 14.3 °F 21.2 °F 80% 30.02 in 10.0 mi NNW 16.1 mph 20.7 mph N/A   Overcast
3:55 AM 26.6 °F 15.7 °F 21.2 °F 80% 30.01 in 10.0 mi NNW 12.7 mph - N/A   Overcast
4:15 AM 26.6 °F 16.2 °F 21.2 °F 80% 30.02 in 10.0 mi NNW 11.5 mph - N/A   Overcast
4:34 AM 26.6 °F 15.7 °F 21.2 °F 80% 30.02 in 10.0 mi NNW 12.7 mph - N/A   Overcast
4:55 AM 26.6 °F 15.2 °F 21.2 °F 80% 30.03 in 10.0 mi NNW 13.8 mph - N/A   Overcast
5:15 AM 26.6 °F 15.2 °F 21.2 °F 80% 30.04 in 10.0 mi NNW 13.8 mph - N/A   Overcast
5:34 AM 26.6 °F 15.7 °F 21.2 °F 80% 30.04 in 10.0 mi North 12.7 mph - N/A   Overcast
5:55 AM 26.6 °F 16.8 °F 21.2 °F 80% 30.06 in 10.0 mi North 10.4 mph - N/A   Overcast
6:15 AM 26.6 °F 16.8 °F 21.2 °F 80% 30.06 in 10.0 mi North 10.4 mph - N/A   Overcast
6:34 AM 24.8 °F 12.9 °F 21.2 °F 86% 30.07 in 10.0 mi North 13.8 mph - N/A   Overcast
6:55 AM 24.8 °F 14.6 °F 21.2 °F 86% 30.08 in 10.0 mi North 10.4 mph - N/A   Overcast
7:15 AM 24.8 °F 15.3 °F 21.2 °F 86% 30.10 in 10.0 mi North 9.2 mph - N/A   Overcast
7:35 AM 24.8 °F 14.6 °F 21.2 °F 86% 30.11 in 10.0 mi North 10.4 mph - N/A   Overcast
7:55 AM 24.8 °F 13.4 °F 21.2 °F 86% 30.11 in 10.0 mi North 12.7 mph - N/A   Overcast
8:14 AM 24.8 °F 16.1 °F 21.2 °F 86% 30.12 in 10.0 mi North 8.1 mph - N/A   Overcast
8:35 AM 24.8 °F 14.6 °F 21.2 °F 86% 30.14 in 10.0 mi NNW 10.4 mph - N/A   Overcast
8:55 AM 24.8 °F 15.3 °F 21.2 °F 86% 30.14 in 10.0 mi NNW 9.2 mph - N/A   Overcast
9:14 AM 24.8 °F 13.4 °F 21.2 °F 86% 30.14 in 10.0 mi North 12.7 mph - N/A   Overcast
9:35 AM 26.6 °F 16.8 °F 21.2 °F 80% 30.16 in 10.0 mi NNW 10.4 mph - N/A   Overcast
9:55 AM 26.6 °F 17.5 °F 21.2 °F 80% 30.16 in 10.0 mi NNW 9.2 mph - N/A   Overcast
10:14 AM 26.6 °F 15.2 °F 21.2 °F 80% 30.17 in 10.0 mi NNW 13.8 mph 18.4 mph N/A   Overcast
10:35 AM 26.6 °F 16.2 °F 21.2 °F 80% 30.18 in 10.0 mi NW 11.5 mph 18.4 mph N/A   Overcast
10:55 AM 26.6 °F 16.8 °F 21.2 °F 80% 30.18 in 10.0 mi NNW 10.4 mph - N/A   Overcast
11:14 AM 26.6 °F 15.7 °F 21.2 °F 80% 30.18 in 10.0 mi WNW 12.7 mph - N/A   Overcast
11:35 AM 26.6 °F 16.8 °F 21.2 °F 80% 30.19 in 10.0 mi NNW 10.4 mph - N/A   Overcast
11:55 AM 26.6 °F 19.1 °F 21.2 °F 80% 30.18 in 10.0 mi NW 6.9 mph - N/A   Overcast
12:14 PM 28.4 °F - 19.4 °F 69% 30.18 in 10.0 mi Calm Calm - N/A   Overcast
12:35 PM 28.4 °F 23.3 °F 21.2 °F 74% 30.18 in 10.0 mi NNE 4.6 mph - N/A   Mostly Cloudy
12:54 PM 28.4 °F - 21.2 °F 74% 30.19 in 10.0 mi Calm Calm - N/A   Scattered Clouds
1:14 PM 28.4 °F 24.6 °F 21.2 °F 74% 30.19 in 10.0 mi North 3.5 mph - N/A   Scattered Clouds
1:35 PM 28.4 °F - 21.2 °F 74% 30.19 in 10.0 mi Calm Calm - N/A   Scattered Clouds
1:55 PM 30.2 °F 26.7 °F 21.2 °F 69% 30.19 in 10.0 mi WNW 3.5 mph - N/A   Scattered Clouds
2:14 PM 30.2 °F - 21.2 °F 69% 30.19 in 10.0 mi Calm Calm - N/A   Clear
2:35 PM 30.2 °F - 21.2 °F 69% 30.18 in 10.0 mi Calm Calm - N/A   Clear
2:55 PM 30.2 °F - 21.2 °F 69% 30.18 in 10.0 mi Calm Calm - N/A   Clear
3:15 PM 30.2 °F 26.7 °F 21.2 °F 69% 30.17 in 10.0 mi NE 3.5 mph - N/A   Clear
3:35 PM 30.2 °F - 21.2 °F 69% 30.18 in 10.0 mi Calm Calm - N/A   Clear
3:54 PM 30.2 °F - 21.2 °F 69% 30.18 in 10.0 mi Calm Calm - N/A   Clear
4:15 PM 30.2 °F - 21.2 °F 69% 30.19 in 10.0 mi Calm Calm - N/A   Clear
4:35 PM 30.2 °F - 21.2 °F 69% 30.19 in 10.0 mi Calm Calm - N/A   Clear
4:54 PM 28.4 °F - 23.0 °F 80% 30.19 in 10.0 mi Calm Calm - N/A   Clear
5:15 PM 28.4 °F 24.6 °F 23.0 °F 80% 30.18 in 10.0 mi SE 3.5 mph - N/A   Clear
5:35 PM 28.4 °F 24.6 °F 24.8 °F 86% 30.18 in 10.0 mi ESE 3.5 mph - N/A   Clear
5:54 PM 26.6 °F 21.2 °F 23.0 °F 86% 30.17 in 10.0 mi ESE 4.6 mph - N/A   Clear
6:15 PM 26.6 °F 20.0 °F 23.0 °F 86% 30.17 in 10.0 mi ESE 5.8 mph - N/A   Clear
6:34 PM 26.6 °F 20.0 °F 23.0 °F 86% 30.18 in 10.0 mi SE 5.8 mph - N/A   Clear
6:55 PM 26.6 °F 21.2 °F 24.8 °F 93% 30.19 in 10.0 mi SSE 4.6 mph - N/A   Clear
7:15 PM 26.6 °F 19.1 °F 24.8 °F 93% 30.17 in 10.0 mi SE 6.9 mph - N/A   Clear
7:34 PM 26.6 °F 20.0 °F 23.0 °F 86% 30.18 in 10.0 mi SE 5.8 mph - N/A   Clear
7:55 PM 24.8 °F 17.9 °F 23.0 °F 93% 30.16 in 10.0 mi ESE 5.8 mph - N/A   Clear
8:15 PM 24.8 °F 16.9 °F 23.0 °F 93% 30.17 in 10.0 mi SE 6.9 mph - N/A   Clear
8:34 PM 24.8 °F 16.9 °F 23.0 °F 93% 30.16 in 10.0 mi SE 6.9 mph - N/A   Clear
8:55 PM 24.8 °F 16.1 °F 21.2 °F 86% 30.15 in 10.0 mi SE 8.1 mph - N/A   Clear
9:15 PM 24.8 °F 16.1 °F 23.0 °F 93% 30.15 in 10.0 mi SSE 8.1 mph - N/A   Clear
9:34 PM 26.6 °F 17.5 °F 23.0 °F 86% 30.15 in 10.0 mi SSE 9.2 mph - N/A   Clear
9:55 PM 26.6 °F 18.2 °F 23.0 °F 86% 30.15 in 10.0 mi SSE 8.1 mph - N/A   Clear
10:15 PM 26.6 °F 16.8 °F 24.8 °F 93% 30.15 in 10.0 mi SSE 10.4 mph - N/A   Clear
10:34 PM 26.6 °F 19.1 °F 24.8 °F 93% 30.14 in 10.0 mi South 6.9 mph - N/A   Clear
10:55 PM 26.6 °F 18.2 °F 24.8 °F 93% 30.14 in 10.0 mi SSE 8.1 mph - N/A   Clear
11:15 PM 26.6 °F 18.2 °F 24.8 °F 93% 30.14 in 10.0 mi SSE 8.1 mph - N/A   Clear
11:34 PM 24.8 °F 16.9 °F 24.8 °F 100% 30.14 in 10.0 mi SSE 6.9 mph - N/A   Clear
11:55 PM 24.8 °F 16.9 °F 23.0 °F 93% 30.15 in 10.0 mi SE 6.9 mph - N/A   Clear